Location: Celina Division
(33.3022°N, 96.7580°W)
Time: 06:17:20
(UTC+00:00)

H-2A R/B - Pass Details

Date: 04 July 2022
Orbit: 491 x 536 km, 97.3° (Epoch: 01 April)

Event Time Altitude Azimuth Distance (km) Brightness Sun altitude
Rises 10:45:01 0° 19° (NNE) 2,614 7.2 -7.6°
Reaches altitude 10° 10:47:11 10° 26° (NNE) 1,731 6.4 -7.2°
Maximum altitude 10:50:45 42° 99° (E) 736 3.9 -6.6°
Drops below altitude 10° 10:54:19 10° 171° (S) 1,740 5.1 -5.9°
Sets 10:56:30 0° 179° (S) 2,629 6.0 -5.6°
